TimeEDT,TemperatureF,Dew PointF,Humidity,Sea Level PressureIn,VisibilityMPH,Wind Direction,Wind SpeedMPH,Gust SpeedMPH,PrecipitationIn,Events,Conditions,WindDirDegrees,DateUTC
12:56 AM,34.0,28.0,79,29.80,-9999.0,SE,3.5,-,N/A,,Unknown,140,2013-04-01 04:56:00
1:56 AM,34.0,28.9,82,29.78,-9999.0,SSE,3.5,-,N/A,,Unknown,150,2013-04-01 05:56:00
2:56 AM,33.1,30.9,92,29.76,-9999.0,SSE,5.8,-,N/A,,Unknown,150,2013-04-01 06:56:00
3:56 AM,34.0,33.1,96,29.73,-9999.0,SE,4.6,-,N/A,,Unknown,140,2013-04-01 07:56:00
4:56 AM,33.1,32.0,96,29.70,-9999.0,Variable,4.6,-,0.01,,Unknown,0,2013-04-01 08:56:00
5:56 AM,32.0,32.0,100,29.67,-9999.0,Variable,5.8,-,0.02,,Unknown,0,2013-04-01 09:56:00
6:56 AM,32.0,30.9,96,29.65,-9999.0,Variable,3.5,-,0.02,,Unknown,0,2013-04-01 10:56:00
7:56 AM,32.0,30.9,96,29.63,-9999.0,ESE,9.2,-,0.05,,Unknown,120,2013-04-01 11:56:00
8:56 AM,32.0,30.9,96,29.60,-9999.0,ESE,6.9,-,0.02,,Unknown,110,2013-04-01 12:56:00
9:56 AM,33.1,30.9,92,29.57,-9999.0,East,9.2,-,0.02,,Unknown,100,2013-04-01 13:56:00
10:56 AM,34.0,32.0,92,29.55,-9999.0,East,8.1,-,N/A,,Unknown,90,2013-04-01 14:56:00
11:56 AM,35.1,33.1,92,29.53,-9999.0,Calm,Calm,-,N/A,,Unknown,0,2013-04-01 15:56:00
12:56 PM,35.1,33.1,92,29.51,-9999.0,ESE,3.5,-,N/A,,Unknown,120,2013-04-01 16:56:00
1:56 PM,37.0,34.0,89,29.48,-9999.0,Calm,Calm,-,N/A,,Unknown,0,2013-04-01 17:56:00
2:56 PM,39.9,34.0,79,29.47,-9999.0,Calm,Calm,-,N/A,,Unknown,0,2013-04-01 18:56:00
3:56 PM,44.1,34.0,68,29.44,-9999.0,Variable,4.6,-,N/A,,Unknown,0,2013-04-01 19:56:00
4:56 PM,42.1,35.1,76,29.45,-9999.0,Variable,4.6,-,N/A,,Unknown,0,2013-04-01 20:56:00
5:56 PM,37.0,35.1,93,29.50,-9999.0,Variable,6.9,-,0.01,,Unknown,0,2013-04-01 21:56:00
6:56 PM,33.1,30.9,92,29.53,-9999.0,Variable,3.5,-,0.07,,Unknown,0,2013-04-01 22:56:00
7:56 PM,30.9,30.0,96,29.55,-9999.0,NW,6.9,-,0.06,,Unknown,310,2013-04-01 23:56:00
8:56 PM,28.9,26.1,89,29.55,-9999.0,Variable,6.9,-,0.01,,Unknown,0,2013-04-02 00:56:00
9:56 PM,27.0,21.0,78,29.56,-9999.0,WNW,10.4,23.0,N/A,,Unknown,300,2013-04-02 01:56:00
10:56 PM,24.1,17.1,75,29.56,-9999.0,West,8.1,26.5,N/A,,Unknown,280,2013-04-02 02:56:00
11:56 PM,23.0,16.0,74,29.58,-9999.0,Variable,4.6,-,N/A,,Unknown,0,2013-04-02 03:56:00